Location: Unspecified
(0.0000°N, 0.0000°E)
Time: 12:32:32
(UTC+00:00)

Hubble Space Telescope - Pass Details

Date: 11 March 2018
Orbit: 537 x 541 km, 28.5° (Epoch: 21 June)

Event Time Altitude Azimuth Distance (km) Brightness Sun altitude
Exits shadow 04:31:15 26° 172° (S) 1,079 2.4 -24.7°
Drops below altitude 10° 04:33:36 10° 145° (SE) 1,782 3.9 -24.1°
Sets 04:36:02 0° 135° (SE) 2,675 5.1 -23.5°
